Flag for Germany Weather past 2 weeks in Ravensburg, Baden-Württemberg, Germany

Now
59 °F

Cool.


Feels Like: 59 °F
Forecast: 49 / 84 °F
Wind: 5 mph from Northeast

Location: Friedrichshafen Airport

Current Time: Aug 3, 2015 at 5:20:07 AM

Latest Report: Aug 3, 2015 at 4:50 AM


Visibility: N/A

Pressure: 30.07 "Hg

Humidity: 72%

Dew point: 50 °F

Location of RavensburgLocation

Historic Weather in Ravensburg — Graph

°F

Ravensburg temperature yesterday

Maximum temperature yesterday: 79 °F (at 5:50 PM)
Minimum temperature yesterday: 61 °F (at 5:50 AM)
Average temperature yesterday: 69 °F

Past Weeks' High & Low Weather Summary

 TemperatureHumidityPressure
High91 °F (Jul 22, 4:20 PM)88% (Jul 19, 4:20 AM)30.15 "Hg (Jul 19, 4:20 AM)
Low46 °F (Jul 30, 5:50 AM)26% (Jul 21, 5:50 PM)29.74 "Hg (Jul 24, 6:20 PM)
Average68 °F60%29.97 "Hg
* Reported Jul 19 3:20 AM — Aug 3 3:50 AM, Ravensburg, Weather by CustomWeather, © 2015

Note: Actual official high and low records may vary slightly from our data, if they occured in-between our weather recording intervals... More about our weather records

Advertising

Ravensburg weather history for previous 24 hours

 ConditionsComfort  
Time TempWeatherWind HumidityBarometerVisibility
3:50 AM
Mon, Aug 3
57 °FCool.6 mph77%30.07 "HgN/A
3:20 AM59 °FCool.2 mph72%30.07 "HgN/A
2:50 AM61 °FCool.5 mph68%30.07 "HgN/A
2:20 AM57 °FCool.6 mph77%30.07 "HgN/A
1:50 AM61 °FCool.5 mph68%30.07 "HgN/A
1:20 AM59 °FCool.5 mph72%30.07 "HgN/A
12:50 AM61 °FCool.3 mph68%30.07 "HgN/A
12:20 AM64 °FMild.3 mph60%30.09 "HgN/A
11:50 PM
Sun, Aug 2
66 °FMild.3 mph56%30.09 "HgN/A
11:20 PM68 °FMild.6 mph53%30.07 "HgN/A
10:50 PM68 °FClear.5 mph53%30.07 "Hg10 mi
10:20 PM68 °FClear.5 mph53%30.07 "Hg10 mi
9:50 PM70 °FSunny.3 mph50%30.09 "Hg10 mi
9:20 PM70 °FSunny.5 mph50%30.07 "Hg10 mi
8:50 PM72 °FSunny.3 mph47%30.07 "Hg10 mi
8:20 PM73 °FSunny.6 mph44%30.07 "Hg10 mi
7:50 PM75 °FSunny.8 mph44%30.07 "Hg10 mi
7:20 PM77 °FSunny.8 mph39%30.07 "Hg10 mi
6:50 PM77 °FPassing clouds.9 mph39%30.07 "HgN/A
6:20 PM79 °FPassing clouds.9 mph34%30.07 "HgN/A
5:50 PM79 °FPassing clouds.8 mph32%30.09 "HgN/A
5:20 PM77 °FPassing clouds.8 mph36%30.09 "HgN/A
4:50 PM77 °FPassing clouds.8 mph36%30.09 "HgN/A
4:20 PM77 °FPassing clouds.6 mph39%30.09 "HgN/A
3:50 PM77 °FPassing clouds.8 mph36%30.09 "HgN/A
3:20 PM77 °FScattered clouds.6 mph39%30.09 "HgN/A
2:50 PM77 °FPassing clouds.3 mph42%30.09 "HgN/A
2:20 PM72 °FBroken clouds.7 mph57%30.12 "HgN/A
1:50 PM72 °FScattered clouds.9 mph57%30.12 "HgN/A
1:20 PM72 °FScattered clouds.10 mph57%30.12 "HgN/A
12:50 PM72 °FPassing clouds.8 mph53%30.12 "HgN/A
12:20 PM70 °FScattered clouds.6 mph60%30.15 "HgN/A
11:50 AM68 °FScattered clouds.7 mph64%30.15 "HgN/A
11:20 AM70 °FScattered clouds.3 mph60%30.15 "HgN/A
10:50 AM68 °FScattered clouds.5 mph69%30.15 "HgN/A
10:20 AM68 °FPartly sunny.5 mph64%30.15 "HgN/A
9:50 AM66 °FPartly sunny.3 mph68%30.15 "HgN/A
9:20 AM66 °FLow clouds.1 mph73%30.15 "HgN/A
8:50 AM64 °FPartly sunny.2 mph78%30.15 "Hg5 mi
8:20 AM63 °FOvercast.2 mph83%30.12 "HgN/A
7:50 AM61 °FClear.2 mph88%30.12 "Hg4 mi
7:20 AM61 °FClear.2 mph88%30.12 "Hg3 mi
6:50 AM61 °FFog.No wind88%30.12 "Hg2 mi
6:20 AM61 °FOvercast.1 mph88%30.12 "Hg5 mi
5:50 AM61 °FOvercast.No wind88%30.09 "Hg5 mi
Weather by CustomWeather, © 2015

See weather overviewHow to use our weather pages